SCP
0 0 0 0 0 0 0 0 0 0 0 0 0 0 0 0 0 0 0 0 0 0 0 0 0 0 0 0 0 0 0 0 0 0 0 0 0 0
0 0 0 0 0 0 0 0 0 0 0 0 0 0 0 0 0 0 0 0 0 0 0 0 0 0 0 0 0 0 0 0 0 0 0 0 0 0
0 0 0 0 0 0 0 0 0 0 0 0 0 0 0 0 0 0 0 0 0 0 0 0 0 0 0 0 0 0 0 0 0 0 0 0 0 0
0 0 0 0 0 0 0 0 0 0 0 0 0 0 0 0 0 0 0 0 0 0 0 0 0 0 0 0 0 0 0 0 0 0 0 0 0 0
-0 0 0 0 0 0 0 0 0 0 0 0 0 0 0 0 0 0 0 0 0 0 0 0 0 0 0 0 0 0 0 0 0 0 0 0 0 0
0 -0 0 0 0 0 0 0 0 0 0 0 0 0 0 0 0 0 0 0 0 0 0 0 0 0 0 0 0 0 0 0 0 0 0 0 0 0
0 0 -0 0 0 0 0 0 0 0 0 0 0 0 0 0 0 0 0 0 0 0 0 0 0 0 0 0 0 0 0 0 0 0 0 0 0 0
0 0 0 0 0 0 0 0 0 0 0 0 0 0 0 0 0 0 0 -0 0 0 0 0 0 0 0 0 0 0 0 0 0 0 0 0 0 0
0 0 0 0 0 0 0 0 0 0 0 0 0 0 0 0 0 0 0 -0 0 -0 -0 -0 0 0 0 0 0 0 0 0 0 0 0 0 0 -0
0 0 0 0 0 0 0 0 0 0 0 0 0 0 0 0 0 0 0 0 -0 -0 0 -0 0 0 0 0 0 0 0 0 -0 -0 0 -0 0 0
0 0 0 0 0 0 0 0 0 0 0 0 0 0 0 0 0 0 0 0 0 0 0 -0 -0 -0 0 0 0 0 0 0 0 -0 -0 -0 0 0
0 0 0 0 0 0 0 0 0 0 0 0 0 0 0 0 0 0 0 0 0 0 0 0 0 0 0 0 0 0 0 -0 -0 -0 -0 -0 0 0
0 0 0 0 0 0 0 0 0 0 0 0 0 0 0 0 0 0 0 0 0 0 0 0 0 0 0 0 0 0 0 0 0 0 0 0 -0 0
0 0 0 0 0 0 0 0 0 0 0 0 0 0 0 0 0 0 0 0 0 0 0 0 0 0 0 0 0 0 0 0 0 0 0 0 -0 -0
0 0 0 0 0 0 0 0 0 0 0 0 0 0 0 -0 -0 0 0 0 0 0 0 0 0 0 0 0 0 0 0 0 0 0 0 0 0 0
0 0 0 0 0 0 0 0 0 0 0 0 0 0 0 0 0 0 0 0 0 0 0 0 0 0 0 0 0 0 0 0 0 0 0 0 0 0
0 0 0 0 0 0 0 0 0 0 0 0 0 0 0 0 0 0 0 0 0 0 0 0 0 0 0 0 0 0 0 0 0 0 0 -0 -0 0
0 0 0 0 0 0 0 0 0 0 0 0 0 0 0 0 0 0 0 0 0 0 0 0 0 0 0 0 -0 0 0 0 0 0 0 0 -0 0
0 0 0 0 0 0 0 0 0 0 0 0 0 0 0 0 0 0 0 0 0 0 0 0 0 0 0 0 0 -0 0 0 0 0 0 0 0 0
0 0 0 0 0 0 0 0 0 0 0 0 0 0 0 0 0 0 0 0 0 0 0 0 0 0 0 0 0 0 0 0 0 0 0 0 0 -0
0 0 0 0 0 0 0 0 0 0 0 0 0 0 0 0 0 0 0 0 0 0 0 0 0 0 0 0 0 0 0 0 0 0 0 0 0 0
0 0 0 0 0 0 0 0 0 0 0 0 0 0 0 0 0 0 0 0 0 0 0 0 0 0 0 0 0 0 0 0 0 0 0 0 -0 -0
0 0 0 0 0 0 0 0 0 0 0 0 0 0 0 0 0 0 0 0 0 0 0 0 0 0 0 0 0 0 0 0 0 0 0 -0 -0 -0
Wind_Speed_500mb
43 23 22 20 19 33 30 21 19 11 21 19 18 20 14 13 13 12 13 15 15 18 25 22 18 14 13 16 18 17 21 27 34 40 46 53 60 66
51 37 20 15 21 20 20 16 20 14 9 16 20 18 14 11 9 6 8 10 12 12 13 13 13 11 12 13 14 16 21 26 34 40 46 54 61 68
42 46 39 21 18 15 18 22 23 27 27 26 25 22 25 24 16 11 10 12 13 12 9 9 8 7 9 10 11 16 21 26 33 39 46 54 61 63
39 40 45 36 18 12 18 26 25 24 26 23 25 19 16 21 24 20 16 14 12 13 9 9 7 6 7 8 11 16 21 28 33 39 48 58 59 55
47 39 40 45 30 18 9 8 5 9 13 13 12 11 13 14 16 14 13 12 13 12 7 7 7 5 4 6 10 15 21 27 32 39 49 56 52 53
46 44 33 37 46 30 18 9 3 3 7 8 6 7 8 6 5 7 8 10 13 12 9 10 11 8 6 3 7 13 22 27 31 39 46 47 47 51
44 42 35 28 32 36 27 18 8 6 4 2 2 3 2 2 1 2 7 9 9 11 9 10 11 11 8 4 6 12 19 24 33 38 44 42 42 45
43 43 38 31 27 31 29 18 13 11 9 8 5 3 2 1 5 5 9 9 8 3 1 4 8 11 6 3 5 12 19 24 31 38 38 34 40 40
38 41 41 38 28 26 28 22 15 11 10 9 9 8 6 7 8 7 9 10 11 10 6 3 2 7 8 2 5 13 18 24 33 33 30 34 34 37
29 36 40 42 37 27 27 21 16 13 12 12 12 11 10 8 7 7 9 9 8 4 1 4 1 5 9 5 7 11 18 24 30 27 28 29 28 36
18 25 32 36 39 33 22 19 15 13 12 11 12 12 12 12 9 6 5 6 2 6 4 6 6 11 10 10 10 9 17 26 29 24 24 26 27 36
13 14 21 29 32 35 27 17 15 13 11 10 11 12 13 15 12 7 5 4 7 5 6 6 14 16 12 12 12 16 19 27 27 19 24 27 32 36
17 17 13 20 27 32 30 20 14 13 9 8 10 13 16 16 14 11 7 7 8 11 6 8 12 11 13 12 13 18 20 22 22 29 31 33 35 34
17 19 16 13 20 25 28 17 12 10 8 9 9 13 16 17 13 11 12 10 9 8 9 8 13 14 17 12 9 22 22 25 29 32 36 38 39 40
21 19 19 13 11 17 22 18 12 9 10 10 11 13 15 18 18 13 9 12 9 12 13 11 18 20 16 15 17 13 18 25 29 32 37 37 36 42
27 25 19 16 8 11 16 19 11 12 12 12 11 10 11 15 18 15 8 10 10 11 14 17 19 20 19 21 21 23 18 17 27 31 34 36 35 38
32 26 19 15 7 2 10 16 15 9 11 11 11 11 12 14 17 15 10 5 8 11 16 18 18 20 19 21 21 23 27 31 28 30 26 27 31 34
25 22 20 12 9 4 2 9 14 16 11 11 12 11 11 12 15 15 10 2 8 11 15 18 23 25 23 22 21 23 30 31 29 30 25 28 35 37
15 18 17 14 12 9 5 3 11 15 17 12 12 11 9 11 12 13 9 3 6 10 13 17 18 16 13 19 23 23 29 31 32 33 30 29 36 38
16 14 15 14 16 11 10 7 1 6 10 12 11 10 11 9 9 11 9 7 2 8 12 15 12 11 14 12 17 28 30 29 31 35 32 32 34 35
20 16 15 14 13 15 12 13 7 2 6 11 13 11 9 7 6 8 9 6 2 7 11 15 12 16 15 20 20 30 32 29 32 32 30 31 31 30
23 20 17 15 15 15 14 14 15 9 4 3 9 12 9 7 7 6 8 5 3 6 9 15 15 21 22 19 20 31 34 32 33 32 29 22 20 25
32 24 20 16 17 17 17 16 17 16 12 7 4 9 13 8 6 6 6 5 1 4 9 17 18 20 21 21 19 29 33 32 33 27 36 34 32 29
Wind_Direction_500mb
358 319 296 282 270 242 259 235 231 212 219 220 219 216 229 255 262 266 269 275 285 272 264 265 267 285 296 309 316 331 342 341 339 337 340 341 343 344
360 359 313 292 268 265 244 218 230 221 214 218 211 199 210 237 245 270 280 309 316 308 281 272 269 286 301 311 326 342 345 344 341 339 342 343 346 346
350 4 4 324 269 263 248 235 242 247 241 247 256 250 235 236 238 259 302 312 319 322 292 242 254 269 297 321 339 350 348 348 343 342 344 348 350 351
360 355 6 2 347 272 245 253 268 256 246 249 244 241 244 240 238 248 268 290 314 325 298 233 238 248 287 322 345 350 349 350 347 348 346 353 356 359
7 1 357 0 6 358 311 285 246 229 239 240 243 238 232 241 240 244 257 276 293 307 297 232 222 230 284 314 339 348 353 352 353 352 353 357 4 10
10 8 5 2 357 3 360 345 291 276 283 254 237 244 240 225 222 248 266 278 281 285 262 224 208 205 230 290 327 350 356 352 358 358 356 8 18 17
13 11 8 8 354 359 359 11 23 11 10 112 123 159 173 201 315 294 312 306 299 286 258 220 211 204 227 266 339 356 354 0 2 360 4 23 29 29
5 15 12 7 7 354 4 7 30 45 55 62 65 75 54 353 338 335 337 338 342 307 299 222 232 210 214 273 348 3 1 10 7 3 17 33 38 38
1 7 15 13 10 0 7 9 22 26 34 44 56 49 24 353 338 333 333 346 332 286 263 213 268 193 179 196 25 9 11 13 14 11 31 44 47 49
359 0 10 14 11 12 1 3 6 15 27 28 35 20 8 356 336 319 316 329 326 277 189 203 120 153 154 124 47 28 17 19 17 27 43 50 56 53
350 356 359 12 14 14 359 5 4 358 1 15 24 17 14 0 354 340 350 29 350 83 127 165 111 123 115 91 56 49 26 23 28 44 53 57 66 55
322 345 350 0 10 8 7 356 6 356 354 5 22 17 10 8 10 9 86 101 99 77 112 137 131 128 99 86 79 51 34 24 36 65 63 65 76 58
325 311 342 347 6 9 13 12 359 358 358 13 25 25 15 15 19 44 74 83 88 70 117 128 154 150 108 109 94 61 45 36 62 65 70 78 77 62
323 308 320 342 359 5 8 15 8 2 15 31 33 26 20 16 21 43 61 67 76 59 85 105 130 122 128 125 107 76 57 60 76 69 71 86 70 57
293 296 308 322 343 1 9 15 13 2 20 34 28 32 22 16 15 18 49 67 76 48 84 115 107 116 124 106 90 132 66 82 82 84 92 88 66 58
285 284 291 305 316 358 8 12 26 13 11 14 19 21 18 14 15 7 29 80 92 77 99 112 113 107 105 97 86 87 95 114 102 100 90 77 61 51
285 283 280 284 288 1 11 14 15 22 14 7 19 13 12 11 9 4 18 80 88 99 109 116 115 117 104 93 99 97 106 111 108 102 94 78 67 64
280 277 268 260 283 280 48 30 19 20 25 12 11 4 4 9 6 4 2 71 111 119 134 131 121 116 108 91 92 103 115 116 112 102 96 87 80 73
279 261 261 258 251 264 232 40 16 21 23 33 11 1 353 6 2 3 1 26 132 133 150 160 154 138 111 108 100 110 123 122 117 114 103 92 86 74
316 281 258 248 239 241 240 229 327 30 25 21 15 358 355 346 347 353 3 10 119 151 158 171 162 141 135 113 117 123 131 128 126 118 104 96 86 79
332 314 280 262 250 242 243 231 236 286 2 15 7 356 347 344 333 331 345 11 78 179 178 168 153 138 138 127 122 130 137 135 133 121 110 105 94 83
341 325 307 276 258 242 237 234 223 238 267 342 3 355 342 346 339 322 320 339 32 183 178 162 145 143 142 128 126 137 142 140 137 128 117 104 93 89
354 334 321 302 267 253 240 233 231 229 242 257 307 357 350 324 328 311 294 305 339 189 185 175 159 160 148 136 129 141 147 141 143 130 115 104 91 84
Wind_Speed_850mb
43 23 22 20 19 33 30 21 19 11 21 19 18 20 14 13 13 12 13 15 15 18 25 22 18 14 13 16 18 17 21 27 34 40 46 53 60 66
51 37 20 15 21 20 20 16 20 14 9 16 20 18 14 11 9 6 8 10 12 12 13 13 13 11 12 13 14 16 21 26 34 40 46 54 61 68
42 46 39 21 18 15 18 22 23 27 27 26 25 22 25 24 16 11 10 12 13 12 9 9 8 7 9 10 11 16 21 26 33 39 46 54 61 63
39 40 45 36 18 12 18 26 25 24 26 23 25 19 16 21 24 20 16 14 12 13 9 9 7 6 7 8 11 16 21 28 33 39 48 58 59 55
47 39 40 45 30 18 9 8 5 9 13 13 12 11 13 14 16 14 13 12 13 12 7 7 7 5 4 6 10 15 21 27 32 39 49 56 52 53
46 44 33 37 46 30 18 9 3 3 7 8 6 7 8 6 5 7 8 10 13 12 9 10 11 8 6 3 7 13 22 27 31 39 46 47 47 51
44 42 35 28 32 36 27 18 8 6 4 2 2 3 2 2 1 2 7 9 9 11 9 10 11 11 8 4 6 12 19 24 33 38 44 42 42 45
43 43 38 31 27 31 29 18 13 11 9 8 5 3 2 1 5 5 9 9 8 3 1 4 8 11 6 3 5 12 19 24 31 38 38 34 40 40
38 41 41 38 28 26 28 22 15 11 10 9 9 8 6 7 8 7 9 10 11 10 6 3 2 7 8 2 5 13 18 24 33 33 30 34 34 37
29 36 40 42 37 27 27 21 16 13 12 12 12 11 10 8 7 7 9 9 8 4 1 4 1 5 9 5 7 11 18 24 30 27 28 29 28 36
18 25 32 36 39 33 22 19 15 13 12 11 12 12 12 12 9 6 5 6 2 6 4 6 6 11 10 10 10 9 17 26 29 24 24 26 27 36
13 14 21 29 32 35 27 17 15 13 11 10 11 12 13 15 12 7 5 4 7 5 6 6 14 16 12 12 12 16 19 27 27 19 24 27 32 36
17 17 13 20 27 32 30 20 14 13 9 8 10 13 16 16 14 11 7 7 8 11 6 8 12 11 13 12 13 18 20 22 22 29 31 33 35 34
17 19 16 13 20 25 28 17 12 10 8 9 9 13 16 17 13 11 12 10 9 8 9 8 13 14 17 12 9 22 22 25 29 32 36 38 39 40
21 19 19 13 11 17 22 18 12 9 10 10 11 13 15 18 18 13 9 12 9 12 13 11 18 20 16 15 17 13 18 25 29 32 37 37 36 42
27 25 19 16 8 11 16 19 11 12 12 12 11 10 11 15 18 15 8 10 10 11 14 17 19 20 19 21 21 23 18 17 27 31 34 36 35 38
32 26 19 15 7 2 10 16 15 9 11 11 11 11 12 14 17 15 10 5 8 11 16 18 18 20 19 21 21 23 27 31 28 30 26 27 31 34
25 22 20 12 9 4 2 9 14 16 11 11 12 11 11 12 15 15 10 2 8 11 15 18 23 25 23 22 21 23 30 31 29 30 25 28 35 37
15 18 17 14 12 9 5 3 11 15 17 12 12 11 9 11 12 13 9 3 6 10 13 17 18 16 13 19 23 23 29 31 32 33 30 29 36 38
16 14 15 14 16 11 10 7 1 6 10 12 11 10 11 9 9 11 9 7 2 8 12 15 12 11 14 12 17 28 30 29 31 35 32 32 34 35
20 16 15 14 13 15 12 13 7 2 6 11 13 11 9 7 6 8 9 6 2 7 11 15 12 16 15 20 20 30 32 29 32 32 30 31 31 30
23 20 17 15 15 15 14 14 15 9 4 3 9 12 9 7 7 6 8 5 3 6 9 15 15 21 22 19 20 31 34 32 33 32 29 22 20 25
32 24 20 16 17 17 17 16 17 16 12 7 4 9 13 8 6 6 6 5 1 4 9 17 18 20 21 21 19 29 33 32 33 27 36 34 32 29
Wind_Direction_850mb
358 319 296 282 270 242 259 235 231 212 219 220 219 216 229 255 262 266 269 275 285 272 264 265 267 285 296 309 316 331 342 341 339 337 340 341 343 344
360 359 313 292 268 265 244 218 230 221 214 218 211 199 210 237 245 270 280 309 316 308 281 272 269 286 301 311 326 342 345 344 341 339 342 343 346 346
350 4 4 324 269 263 248 235 242 247 241 247 256 250 235 236 238 259 302 312 319 322 292 242 254 269 297 321 339 350 348 348 343 342 344 348 350 351
360 355 6 2 347 272 245 253 268 256 246 249 244 241 244 240 238 248 268 290 314 325 298 233 238 248 287 322 345 350 349 350 347 348 346 353 356 359
7 1 357 0 6 358 311 285 246 229 239 240 243 238 232 241 240 244 257 276 293 307 297 232 222 230 284 314 339 348 353 352 353 352 353 357 4 10
10 8 5 2 357 3 360 345 291 276 283 254 237 244 240 225 222 248 266 278 281 285 262 224 208 205 230 290 327 350 356 352 358 358 356 8 18 17
13 11 8 8 354 359 359 11 23 11 10 112 123 159 173 201 315 294 312 306 299 286 258 220 211 204 227 266 339 356 354 0 2 360 4 23 29 29
5 15 12 7 7 354 4 7 30 45 55 62 65 75 54 353 338 335 337 338 342 307 299 222 232 210 214 273 348 3 1 10 7 3 17 33 38 38
1 7 15 13 10 0 7 9 22 26 34 44 56 49 24 353 338 333 333 346 332 286 263 213 268 193 179 196 25 9 11 13 14 11 31 44 47 49
359 0 10 14 11 12 1 3 6 15 27 28 35 20 8 356 336 319 316 329 326 277 189 203 120 153 154 124 47 28 17 19 17 27 43 50 56 53
350 356 359 12 14 14 359 5 4 358 1 15 24 17 14 0 354 340 350 29 350 83 127 165 111 123 115 91 56 49 26 23 28 44 53 57 66 55
322 345 350 0 10 8 7 356 6 356 354 5 22 17 10 8 10 9 86 101 99 77 112 137 131 128 99 86 79 51 34 24 36 65 63 65 76 58
325 311 342 347 6 9 13 12 359 358 358 13 25 25 15 15 19 44 74 83 88 70 117 128 154 150 108 109 94 61 45 36 62 65 70 78 77 62
323 308 320 342 359 5 8 15 8 2 15 31 33 26 20 16 21 43 61 67 76 59 85 105 130 122 128 125 107 76 57 60 76 69 71 86 70 57
293 296 308 322 343 1 9 15 13 2 20 34 28 32 22 16 15 18 49 67 76 48 84 115 107 116 124 106 90 132 66 82 82 84 92 88 66 58
285 284 291 305 316 358 8 12 26 13 11 14 19 21 18 14 15 7 29 80 92 77 99 112 113 107 105 97 86 87 95 114 102 100 90 77 61 51
285 283 280 284 288 1 11 14 15 22 14 7 19 13 12 11 9 4 18 80 88 99 109 116 115 117 104 93 99 97 106 111 108 102 94 78 67 64
280 277 268 260 283 280 48 30 19 20 25 12 11 4 4 9 6 4 2 71 111 119 134 131 121 116 108 91 92 103 115 116 112 102 96 87 80 73
279 261 261 258 251 264 232 40 16 21 23 33 11 1 353 6 2 3 1 26 132 133 150 160 154 138 111 108 100 110 123 122 117 114 103 92 86 74
316 281 258 248 239 241 240 229 327 30 25 21 15 358 355 346 347 353 3 10 119 151 158 171 162 141 135 113 117 123 131 128 126 118 104 96 86 79
332 314 280 262 250 242 243 231 236 286 2 15 7 356 347 344 333 331 345 11 78 179 178 168 153 138 138 127 122 130 137 135 133 121 110 105 94 83
341 325 307 276 258 242 237 234 223 238 267 342 3 355 342 346 339 322 320 339 32 183 178 162 145 143 142 128 126 137 142 140 137 128 117 104 93 89
354 334 321 302 267 253 240 233 231 229 242 257 307 357 350 324 328 311 294 305 339 189 185 175 159 160 148 136 129 141 147 141 143 130 115 104 91 84